Location: Cantaing
(50.1487°N, 3.1675°E)
Time: 14:53:59
(UTC+00:00)

Cosmos 381 Rocket - Pass Details

Date: 14 January 2026
Orbit: 956 x 994 km, 74.0° (Epoch: 18 February)

Event Time Altitude Azimuth Distance (km) Brightness Sun altitude
Exits shadow 05:01:59 30° 214° (SW) 1,687 5.5 -24.8°
Maximum altitude 05:05:19 76° 295° (WNW) 1,026 4.4 -24.2°
Drops below altitude 10° 05:11:46 10° 22° (NNE) 2,763 7.0 -23.2°
Sets 05:14:20 0° 24° (NNE) 3,711 7.8 -22.8°
